Tracking 17559 objects as of 13-February-2016
HD Live streaming from Space Station
objects crossing your sky now

DELTA 1 R/B


10-day predictions


NORAD ID: 2661
Int'l Code: 1967-006B
Perigee: 1,347.5 km
Apogee: 1,447.7 km
Inclination: 102.0 °
Period: 113.6 minutes
Semi major axis: 7768 km
RCS: 0.6811 m2 (medium)
Launch date: January 26, 1967
Source: United States (US)
Launch site: AIR FORCE WESTERN TEST RANGE (AFWTR)

Note: This is a ROCKET BODY
Your satellite tracking list
Your tracking list is empty





NASA's NSSDC Master Catalog

Two Line Element Set (TLE):
1  2661U 67006B   16043.89220322 -.00000038 +00000-0 +53266-4 0  9994
2  2661 101.9604 291.0989 0064498 260.2400 237.5196 12.6791798426941
Source of the keplerian elements: AFSPC

N2YO: 497